CW8504 Weather Reports


time (UTC)temp
C
wind
direction
speed
KPH
gust
KPH
rain 1hr
cm
rain 24hr
cm
rain mn
cm
humidity
%
barometer
mb
20260903202904 23 209 0.0 0.0 0.00 0.00 0.00 10 1016.0
20260903202404 23 230 1.6 4.8 0.00 0.00 0.00 12 1016.0
20260903201904 23 223 6.4 12.9 0.00 0.00 0.00 11 1016.2
20260903201404 23 239 0.0 0.0 0.00 0.00 0.00 11 1016.2
20260903200904 23 229 1.6 4.8 0.00 0.00 0.00 10 1016.3
20260903200404 22 228 3.2 11.3 0.00 0.00 0.00 11 1016.3
20260903195904 22 199 0.0 4.8 0.00 0.00 0.00 11 1016.3
20260903195404 22 215 8.0 11.3 0.00 0.00 0.00 13 1016.5
20260903194904 22 211 1.6 11.3 0.00 0.00 0.00 14 1016.5
20260903194404 22 214 3.2 12.9 0.00 0.00 0.00 12 1016.6
20260903193904 22 238 3.2 22.5 0.00 0.00 0.00 13 1016.4
20260903193404 22 246 3.2 19.3 0.00 0.00 0.00 11 1016.6
20260903192904 22 229 4.8 19.3 0.00 0.00 0.00 13 1016.6
20260903192404 22 268 8.0 19.3 0.00 0.00 0.00 13 1016.7
20260903191904 22 260 0.0 4.8 0.00 0.00 0.00 12 1016.7
20260903191404 22 231 1.6 11.3 0.00 0.00 0.00 12 1016.7
20260903190904 22 237 3.2 14.5 0.00 0.00 0.00 13 1016.9
20260903190404 22 234 4.8 14.5 0.00 0.00 0.00 14 1016.8
20260903185904 21 230 1.6 16.1 0.00 0.00 0.00 15 1016.9
20260903185404 21 228 8.0 19.3 0.00 0.00 0.00 14 1016.9
20260903184904 21 233 3.2 12.9 0.00 0.00 0.00 16 1016.9
20260903184404 20 238 1.6 14.5 0.00 0.00 0.00 16 1017.0
20260903183904 20 235 8.0 19.3 0.00 0.00 0.00 16 1017.0
20260903183405 20 222 4.8 16.1 0.00 0.00 0.00 16 1017.1
20260903182904 20 226 3.2 9.7 0.00 0.00 0.00 17 1017.2
20260903182404 20 230 6.4 16.1 0.00 0.03 0.00 17 1017.2
20260903181904 20 225 8.0 16.1 0.00 0.03 0.00 16 1017.2
20260903181404 19 233 6.4 16.1 0.00 0.03 0.00 15 1017.3
20260903180904 19 237 3.2 14.5 0.00 0.03 0.00 17 1017.4
20260903180404 19 259 1.6 14.5 0.00 0.05 0.00 17 1017.4
20260903175904 19 227 1.6 11.3 0.00 0.05 0.00 18 1017.4
20260903175404 19 216 4.8 12.9 0.00 0.05 0.00 17 1017.5
20260903174904 19 220 1.6 12.9 0.00 0.08 0.00 19 1017.5
20260903174404 19 238 0.0 1.6 0.00 0.08 0.00 20 1017.6
20260903173904 18 253 3.2 8.0 0.00 0.08 0.00 18 1017.6
20260903173404 18 224 0.0 3.2 0.00 0.08 0.00 22 1017.6
20260903172904 18 225 0.0 8.0 0.00 0.08 0.00 20 1017.6
20260903172404 18 227 3.2 4.8 0.00 0.08 0.00 21 1017.7
20260903171904 18 231 0.0 3.2 0.00 0.08 0.00 21 1017.6
20260903171404 18 233 3.2 9.7 0.00 0.08 0.00 18 1017.7
20260903170904 18 248 0.0 3.2 0.00 0.08 0.00 23 1017.6
20260903170404 17 172 0.0 0.0 0.00 0.08 0.00 25 1017.6
20260903165904 17 173 0.0 0.0 0.00 0.08 0.00 24 1017.6
20260903164904 17 203 0.0 3.2 0.00 0.08 0.00 29 1017.6
20260903164404 16 240 0.0 0.0 0.00 0.08 0.00 29 1017.6
20260903163404 16 249 0.0 0.0 0.00 0.08 0.00 31 1017.7
20260903162904 16 249 0.0 0.0 0.00 0.08 0.00 35 1017.8
20260903162404 15 250 0.0 0.0 0.00 0.08 0.00 35 1017.8
20260903161904 15 250 0.0 0.0 0.00 0.08 0.00 34 1017.8
20260903161404 15 250 0.0 0.0 0.00 0.08 0.00 35 1017.8
20260903160404 13 250 0.0 0.0 0.00 0.08 0.00 43 1017.9
20260903155904 13 262 0.0 0.0 0.00 0.08 0.00 43 1017.9
20260903155404 13 297 0.0 0.0 0.00 0.08 0.00 43 1018.0
20260903154404 13 298 0.0 0.0 0.00 0.08 0.00 45 1018.1
20260903153904 12 298 0.0 0.0 0.00 0.08 0.00 49 1018.1
20260903153404 12 298 0.0 0.0 0.00 0.08 0.00 50 1018.1
20260903152905 11 298 0.0 1.6 0.00 0.08 0.00 49 1018.1
20260903152404 11 299 1.6 4.8 0.00 0.08 0.00 53 1018.2
20260903151904 11 298 0.0 4.8 0.00 0.08 0.00 53 1018.2
20260903151404 10 279 0.0 0.0 0.00 0.08 0.00 55 1018.2
20260903150904 10 279 0.0 0.0 0.00 0.08 0.00 58 1018.3
20260903150404 9 279 0.0 0.0 0.00 0.08 0.00 59 1018.3
20260903145904 8 279 0.0 0.0 0.00 0.08 0.00 62 1018.4
20260903144905 7 275 0.0 0.0 0.00 0.08 0.00 62 1018.5
20260903144404 7 211 0.0 0.0 0.00 0.08 0.00 64 1018.5
20260903143404 7 211 0.0 0.0 0.00 0.08 0.00 65 1018.4
20260903142404 7 212 0.0 0.0 0.00 0.08 0.00 65 1018.3
20260903141904 7 214 0.0 0.0 0.00 0.08 0.00 67 1018.3
20260903141404 6 214 0.0 0.0 0.00 0.08 0.00 67 1018.2
20260903140404 6 214 0.0 0.0 0.00 0.08 0.00 68 1018.2
20260903135904 6 214 0.0 0.0 0.00 0.08 0.00 68 1018.1
20260903135404 6 214 0.0 0.0 0.00 0.08 0.00 68 1018.0
20260903134904 6 214 0.0 0.0 0.00 0.08 0.00 68 1018.0
20260903134404 6 214 0.0 0.0 0.00 0.08 0.00 67 1018.0
20260903133404 6 214 0.0 0.0 0.00 0.08 0.00 67 1017.9
20260903132404 6 214 0.0 0.0 0.00 0.08 0.00 66 1017.8
20260903131404 6 214 0.0 0.0 0.00 0.08 0.00 66 1017.7
20260903130904 6 214 0.0 0.0 0.00 0.08 0.00 66 1017.5
20260903130404 6 214 0.0 0.0 0.00 0.08 0.00 66 1017.4
20260903125904 6 214 0.0 0.0 0.00 0.08 0.00 66 1017.4
20260903125404 6 214 0.0 0.0 0.00 0.08 0.00 66 1017.4
20260903124904 6 214 0.0 0.0 0.00 0.08 0.00 66 1017.4
20260903124404 6 214 0.0 0.0 0.00 0.08 0.00 66 1017.5
20260903123904 7 215 0.0 0.0 0.00 0.08 0.00 66 1017.4
20260903123404 7 215 0.0 0.0 0.00 0.08 0.00 66 1017.5
20260903122904 7 215 0.0 0.0 0.00 0.08 0.00 65 1017.5
20260903122404 7 215 0.0 0.0 0.00 0.08 0.00 65 1017.5
20260903121904 7 215 0.0 0.0 0.00 0.08 0.00 65 1017.5
20260903121404 7 215 0.0 0.0 0.00 0.08 0.00 66 1017.4
20260903120404 7 215 0.0 0.0 0.00 0.08 0.00 66 1017.2
20260903115904 7 215 0.0 0.0 0.00 0.08 0.00 67 1017.2
20260903115404 7 214 0.0 0.0 0.00 0.08 0.00 66 1017.3
20260903114404 7 214 0.0 0.0 0.00 0.08 0.00 66 1017.3
20260903113904 7 214 0.0 0.0 0.00 0.08 0.00 65 1017.3
20260903113404 7 214 0.0 0.0 0.00 0.08 0.00 65 1017.3
20260903112904 7 214 0.0 0.0 0.00 0.08 0.00 64 1017.3
20260903112404 7 214 0.0 0.0 0.00 0.08 0.00 64 1017.2
20260903111904 7 214 0.0 0.0 0.00 0.08 0.00 64 1017.1
20260903111404 7 214 0.0 0.0 0.00 0.08 0.00 65 1017.2
20260903110904 7 214 0.0 0.0 0.00 0.08 0.00 65 1017.1
20260903110404 7 214 0.0 0.0 0.00 0.08 0.00 65 1017.1
20260903105904 7 214 0.0 0.0 0.00 0.08 0.00 64 1016.9
20260903105404 7 214 0.0 0.0 0.00 0.08 0.00 63 1016.9
20260903104904 7 214 0.0 0.0 0.00 0.08 0.00 62 1016.9
20260903104404 7 214 0.0 0.0 0.00 0.08 0.00 62 1016.7
20260903103404 7 214 0.0 1.6 0.00 0.08 0.00 61 1016.6
20260903102904 7 216 0.0 4.8 0.00 0.08 0.00 62 1016.6
20260903102404 7 217 0.0 0.0 0.00 0.08 0.00 62 1016.6
20260903101904 7 217 0.0 0.0 0.00 0.08 0.00 62 1016.6
20260903101404 7 217 0.0 0.0 0.00 0.08 0.00 62 1016.5
20260903100904 8 217 0.0 0.0 0.00 0.08 0.00 61 1016.4
20260903095904 8 217 0.0 0.0 0.00 0.08 0.00 61 1016.5
20260903095405 8 217 0.0 0.0 0.00 0.08 0.00 60 1016.4
20260903094404 8 217 0.0 0.0 0.00 0.08 0.00 61 1016.3
20260903093904 8 217 0.0 0.0 0.00 0.08 0.00 60 1016.2
20260903093404 8 217 0.0 0.0 0.00 0.08 0.00 59 1016.3
20260903092904 8 217 0.0 0.0 0.00 0.08 0.00 59 1016.2
20260903092404 8 217 0.0 0.0 0.00 0.08 0.00 58 1016.3
20260903091904 8 217 0.0 0.0 0.00 0.08 0.00 58 1016.2
20260903091404 9 218 0.0 0.0 0.00 0.08 0.00 59 1016.4
20260903090904 9 218 0.0 0.0 0.00 0.08 0.00 58 1016.4
20260903090404 9 218 0.0 0.0 0.00 0.08 0.00 58 1016.5
20260903085904 9 218 0.0 0.0 0.00 0.10 0.00 57 1016.5
20260903085404 9 218 0.0 0.0 0.00 0.10 0.00 57 1016.4
20260903084904 9 218 0.0 0.0 0.00 0.10 0.00 57 1016.4
20260903084404 10 218 0.0 0.0 0.00 0.10 0.00 58 1016.5
20260903083904 10 218 0.0 0.0 0.00 0.10 0.00 58 1016.5
20260903083404 10 218 0.0 0.0 0.00 0.10 0.00 57 1016.5
20260903082904 10 218 0.0 0.0 0.00 0.10 0.00 57 1016.6
20260903082404 10 218 0.0 0.0 0.00 0.10 0.00 57 1016.5
20260903081904 10 218 0.0 0.0 0.00 0.10 0.00 57 1016.5
20260903081404 10 218 0.0 0.0 0.00 0.13 0.00 56 1016.5
20260903080904 10 218 0.0 0.0 0.00 0.13 0.00 57 1016.6
20260903080404 10 218 0.0 0.0 0.00 0.15 0.00 56 1016.7
20260903075904 10 218 0.0 0.0 0.00 0.18 0.00 56 1016.8
20260903075404 10 218 0.0 0.0 0.00 0.18 0.00 56 1016.8
20260903074904 10 218 0.0 0.0 0.00 0.20 0.00 56 1016.7
20260903074404 10 218 0.0 0.0 0.00 0.20 0.00 55 1016.7
20260903073904 10 218 0.0 0.0 0.00 0.20 0.00 55 1016.7
20260903073404 10 218 0.0 0.0 0.00 0.20 0.00 55 1016.7
20260903072904 10 218 0.0 0.0 0.00 0.20 0.00 54 1016.7
20260903072404 10 218 0.0 0.0 0.00 0.20 0.00 54 1016.7
20260903071904 10 218 0.0 0.0 0.00 0.20 0.00 54 1016.8
20260903071405 10 221 0.0 0.0 0.00 0.20 0.00 54 1016.5
20260903070904 10 221 0.0 0.0 0.00 0.20 0.00 54 1016.7
20260903070404 10 221 0.0 0.0 0.00 0.20 0.00 54 1016.8
20260903065904 10 221 0.0 0.0 0.00 0.20 0.00 54 1017.0
20260903065404 10 221 0.0 0.0 0.00 0.20 0.00 53 1017.0
20260903064904 10 221 0.0 0.0 0.00 0.20 0.00 53 1016.9
20260903064404 11 221 0.0 0.0 0.00 0.20 0.00 53 1016.6
20260903063904 11 221 0.0 0.0 0.00 0.20 0.00 54 1016.8
20260903063404 11 221 0.0 0.0 0.00 0.20 0.00 53 1016.9
20260903062904 11 221 0.0 0.0 0.00 0.20 0.00 51 1016.9
20260903062404 11 221 0.0 0.0 0.00 0.20 0.00 50 1017.0
20260903061904 11 221 0.0 0.0 0.00 0.20 0.00 49 1016.8
20260903061404 11 221 0.0 0.0 0.00 0.20 0.00 49 1016.7
20260903055904 11 221 0.0 0.0 0.00 0.20 0.20 46 1016.6
20260903055404 11 221 0.0 0.0 0.00 0.20 0.20 47 1016.6
20260903054904 11 221 0.0 0.0 0.00 0.20 0.20 46 1016.4
20260903054404 11 221 0.0 0.0 0.00 0.20 0.20 46 1016.4
20260903053904 11 221 0.0 0.0 0.00 0.20 0.20 46 1016.2
20260903052904 12 221 0.0 0.0 0.00 0.20 0.20 46 1016.3
20260903052404 12 221 0.0 0.0 0.00 0.20 0.20 46 1016.5
20260903051904 12 221 0.0 0.0 0.00 0.20 0.20 45 1016.5
20260903051404 12 221 0.0 0.0 0.00 0.20 0.20 44 1016.4
20260903050904 12 260 0.0 0.0 0.00 0.20 0.20 43 1016.2
20260903050404 12 260 0.0 0.0 0.00 0.20 0.20 45 1016.1
20260903045904 12 260 0.0 0.0 0.00 0.20 0.20 46 1016.1
20260903044904 13 260 0.0 0.0 0.00 0.20 0.20 43 1016.2
20260903044404 13 260 0.0 0.0 0.00 0.20 0.20 43 1016.2
20260903043904 13 260 0.0 0.0 0.00 0.20 0.20 42 1016.3
20260903043404 13 260 0.0 0.0 0.00 0.20 0.20 42 1016.2
20260903042904 13 260 0.0 0.0 0.00 0.20 0.20 43 1016.2
20260903042404 14 260 0.0 0.0 0.00 0.20 0.20 41 1016.1
20260903041904 14 260 0.0 0.0 0.00 0.20 0.20 39 1016.2
20260903041404 14 261 0.0 0.0 0.00 0.20 0.20 37 1016.3
20260903040904 15 261 0.0 0.0 0.00 0.20 0.20 36 1016.3
20260903040404 15 261 0.0 0.0 0.00 0.20 0.20 36 1016.3
20260903035904 15 261 0.0 0.0 0.00 0.20 0.20 34 1016.3
20260903035404 15 261 0.0 0.0 0.00 0.20 0.20 35 1016.4
20260903034904 15 261 0.0 0.0 0.00 0.20 0.20 36 1016.3
20260903034404 15 261 0.0 0.0 0.00 0.20 0.20 35 1016.2
20260903033904 15 261 0.0 0.0 0.00 0.20 0.20 34 1016.2
20260903032904 15 261 0.0 0.0 0.00 0.20 0.20 32 1016.3
20260903032404 15 248 0.0 0.0 0.00 0.20 0.20 28 1016.4
20260903031404 16 247 0.0 0.0 0.00 0.20 0.20 30 1016.4
20260903030904 16 247 0.0 0.0 0.00 0.20 0.20 31 1016.6
20260903030405 16 247 0.0 0.0 0.00 0.20 0.20 30 1016.5
20260903025904 16 247 0.0 0.0 0.00 0.20 0.20 28 1016.4
20260903025407 16 247 0.0 0.0 0.00 0.20 0.20 29 1016.5
20260903024904 16 247 0.0 0.0 0.00 0.20 0.20 27 1016.4
20260903024404 16 268 0.0 0.0 0.00 0.20 0.20 27 1016.3
20260903023904 16 269 0.0 0.0 0.00 0.20 0.20 26 1016.2
20260903023404 16 269 0.0 0.0 0.00 0.23 0.20 25 1016.1
20260903022904 17 249 0.0 0.0 0.00 0.23 0.20 26 1016.0
20260903021904 17 249 0.0 0.0 0.00 0.23 0.20 25 1015.8
20260903021404 17 249 0.0 0.0 0.00 0.23 0.20 23 1015.7
20260903020904 17 249 0.0 0.0 0.00 0.23 0.20 29 1015.7
20260903020404 18 247 0.0 0.0 0.00 0.23 0.20 29 1015.7
20260903015904 18 247 0.0 0.0 0.00 0.23 0.20 26 1015.5
20260903014404 19 247 0.0 0.0 0.00 0.23 0.20 15 1015.5
20260903013904 20 247 0.0 3.2 0.00 0.23 0.20 14 1015.5
20260903013404 20 248 0.0 0.0 0.00 0.23 0.20 15 1015.5
20260903012904 20 248 0.0 0.0 0.00 0.23 0.20 16 1015.5
20260903012404 20 248 0.0 3.2 0.00 0.23 0.20 15 1015.5
20260903011904 21 228 0.0 1.6 0.00 0.23 0.20 18 1015.3
20260903010904 21 223 0.0 0.0 0.00 0.23 0.20 15 1015.2
20260903010404 21 223 0.0 0.0 0.00 0.23 0.20 13 1015.2
20260903005904 21 223 0.0 0.0 0.00 0.23 0.20 12 1015.2
20260903005404 21 223 0.0 3.2 0.00 0.23 0.20 13 1015.2
20260903004404 22 217 1.6 4.8 0.00 0.23 0.20 12 1015.1
20260903003904 22 216 1.6 9.7 0.00 0.23 0.20 12 1015.1
20260903003404 22 233 3.2 12.9 0.00 0.23 0.20 10 1015.2
20260903002904 22 226 0.0 8.0 0.00 0.23 0.20 12 1015.2
20260903002404 22 226 0.0 9.7 0.00 0.23 0.20 12 1015.2
20260903001404 23 239 0.0 4.8 0.00 0.23 0.20 12 1015.3
20260903000904 23 212 3.2 19.3 0.00 0.23 0.20 12 1015.2
20260903000404 23 223 0.0 3.2 0.00 0.23 0.20 12 1015.2
20260902235904 23 218 3.2 9.7 0.00 0.23 0.20 12 1015.2
20260902235404 23 222 1.6 8.0 0.00 0.23 0.20 14 1015.1
20260902234904 23 224 3.2 9.7 0.00 0.23 0.20 12 1015.1
20260902234404 23 218 1.6 9.7 0.00 0.23 0.20 14 1015.1
20260902233904 23 218 1.6 9.7 0.00 0.23 0.20 17 1015.1
20260902233404 22 225 1.6 8.0 0.00 0.23 0.20 15 1015.1
20260902232904 22 222 1.6 19.3 0.00 0.23 0.20 15 1015.1
20260902232404 22 246 8.0 14.5 0.00 0.23 0.20 14 1015.1
20260902231904 22 215 3.2 19.3 0.00 0.23 0.20 14 1015.2
20260902231404 22 224 1.6 9.7 0.00 0.23 0.20 15 1015.2
20260902230904 22 247 0.0 0.0 0.00 0.23 0.20 16 1015.0
20260902225904 22 216 1.6 9.7 0.00 0.23 0.20 13 1015.0
20260902225404 22 214 1.6 8.0 0.00 0.23 0.20 14 1015.0
20260902224404 22 225 6.4 19.3 0.00 0.23 0.20 13 1015.2
20260902223904 22 226 4.8 16.1 0.00 0.23 0.20 13 1015.1
20260902223404 22 221 3.2 16.1 0.00 0.23 0.20 12 1015.1
20260902222403 23 222 6.4 24.1 0.00 0.23 0.20 11 1015.2
20260902221904 22 221 4.8 20.9 0.00 0.23 0.20 15 1015.2
20260902221404 22 212 3.2 20.9 0.00 0.23 0.20 14 1015.2
20260902220904 22 214 8.0 20.9 0.00 0.23 0.20 14 1015.2
20260902220404 23 228 9.7 22.5 0.00 0.23 0.20 13 1015.1
20260902215904 23 227 9.7 20.9 0.00 0.23 0.20 13 1015.2
20260902215404 22 229 3.2 20.9 0.00 0.23 0.20 12 1015.1
20260902214904 22 208 8.0 19.3 0.00 0.23 0.20 16 1015.1
20260902214404 22 219 4.8 20.9 0.00 0.23 0.20 15 1015.2
20260902213904 22 231 4.8 20.9 0.00 0.23 0.20 17 1015.1
20260902213404 22 217 8.0 19.3 0.00 0.23 0.20 16 1015.0
20260902212904 23 226 6.4 27.4 0.00 0.23 0.20 16 1015.1
20260902211904 23 211 6.4 24.1 0.00 0.23 0.20 16 1015.1
20260902211404 23 226 9.7 19.3 0.00 0.23 0.20 15 1015.1
20260902210904 22 214 11.3 19.3 0.00 0.23 0.20 17 1015.2
20260902205904 22 213 4.8 16.1 0.00 0.23 0.20 15 1015.3
20260902205404 23 232 6.4 25.7 0.00 0.23 0.20 16 1015.2
20260902204404 23 227 9.7 25.7 0.00 0.23 0.20 15 1015.3
20260902203904 23 207 8.0 16.1 0.00 0.23 0.20 17 1015.4